星链-36803(STARLINK-36803)

导读

STARLINK-36803是美国太空探索技术公司SpaceX星链星座的成员卫星,于2026年2月21日发射入轨。星链项目旨在构建覆盖全球的低轨卫星互联网星座,为全球各地提供高速互联网接入服务。该卫星延续星链技术设计,服役后将进一步补充星座网络容量,提升全球通信覆盖能力,推动低轨卫星互联网布局完善。

基本信息
目录编号:
67893
目录名称:
STARLINK-36803
国际标识:
2026-035Q
轨道中心:
EARTH
卫星名称:
星链-36803
卫星全名:
星链-36803(STARLINK-36803)
卫星状态:
在轨 (已飞行195 天)
发射日期:
2026-02-21 UTC
国别 :
美国 (US)
星等 :
--
轨道信息
数据来源 国际轨道数据
星历时间: 2026-09-03T09:26:55+0800
1天前
查看轨道信息
半长轴: 6843.549km
偏心率: 0.0001632
轨道倾角: 97.284°
近地点辐角 102.941°
升交点赤经 178.207°
平近点角 257.202°
近地点: 464.295km
远地点: 466.529km
周期: 93.903分钟
每日圈数: 15.334893
详细信息
固有亮度:
5
最大亮度:
2.5
卫星平台:
Starlink V1.0
覆盖范围:
全球
运营商:
太空探索技术公司
运营商所在国:
美国
制造商(研发单位):
太空探索技术公司
制造商所在国:
美国
使用方式:
暂无
卫星简介
Starlink 计划是 SpaceX 推出的全球卫星互联网项目,通过发射低轨道卫星,为全球尤其是偏远地区提供高速、低延迟的互联网服务。自 2019 年起,Starlink 已部署数千颗卫星,旨在缩小全球数字鸿沟,推动互联网普及。该项目还为军事、航空等行业提供通信支持,带来广泛经济效益。
2D轨道图
3D轨道图
轨道高度分析图
轨道倾角分析图
轨道综合分析图
查看轨道综合分析图
交会数据列表
事件ID 空间交会对象 最接近时刻(TCA) 交会距离 交会风险概率(CRP) 交会风险指数(CRI) 操作
CDM_260829-171505-434606-789322
2026-08-29T
17:15:09+0000
1.625 km
极远距离
5.253905E-6 低风险 0.49
CDM_260903-122605-301906-789324
2026-09-03T
12:26:22+0000
2.305 km
极远距离
2.051986E-6 低风险 0.41
CDM_260903-044705-254806-789321
2026-09-03T
04:47:04+0000
2.373 km
极远距离
1.861309E-6 低风险 0.4